CZ-4 DEB, 26234

Orbit data source: Space-Track

CZ-4 DEB, 26234 is space debris in SSO originally from a launch on Thu, 14 Oct 1999 UTC launched from the Taiyaun Space Center, China (TSC). Debris objects in space refer to the collection of defunct objects orbiting the Earth. Examples of debris include non-operational satellites, rocket bodies, and fragments generated from explosions, collisions, or faulty payload assembly.

Loading next visibility...
Identifier
26234, 1999-057DY
Orbit
SSO
Country
Flag of CNCN / PRC
Related business
Manufacturer
Unknown
Mission
Spacecraft
Bus & Motor
Unknown
Mass
Unknown
Launch date (UTC)
1999-10-14 (26 years ago)
Launch vehicle
Unknown
Launch site
Taiyaun Space Center, China (TSC)
Object type
Payload
Rocket body
Debris
Shape & HBR
Unknown shape, 0.2 m
Radar Cross Section
Small (<0.1 m²)

Expand to show TLE details & history
Last TLE update: 8 hours ago

TLE from 8 hours ago
0 CZ-4 DEB
1 26234U 99057DY  25349.89726238  .00000714  00000-0  17550-3 0  9998
2 26234  98.5933  99.2244 0012186 106.5232  11.9119 14.55375184363651
Epoch: 2025-12-15T21:32Z
TLE epoch observation values (Epoch: 2025-12-15T21:32:03.469Z)
Latitude
60.46912°
Longitude
-113.19281°
Altitude
709.98 km
Speed
7.511 km/s
True Right ascension
19h 38m 26s
True Declination
60° 19' 13"
Sunlit
Object was in daylight at epoch
Visualization orbit readout
Latitude
Unknown
Longitude
Unknown
Altitude
Unknown
Speed
Unknown
Apparent Right ascension
Unknown
Apparent Declination
Unknown
Sunlit
N/A
Visualization observer readout
Local Sidereal Time
04:14:43
Azimuth
Unknown
Elevation
Unknown
Doppler factor
Unknown
Orbital elements
Apogee altitude
713.884 km
Perigee altitude
696.621 km
Semi-major axis
7,083.389 km
Eccentricity
0.00122
Inclination
98.5933°
RAAN
99.2244°
Arg. of periapsis
106.5232°
True anomaly
11.94077°
Mean anomaly
11.9119°
Eccentric anomaly
11.92633°
Mean motion
3.64067 °/min
Orbital period
98.88 mins
BSTAR
0.0001755
Loading maneuver chart data...
Computing Atmospheric mass density...
Loading historical data...
Loading historical data...
Loading historical data...
Loading historical data...
Loading historical data...
Loading historical data...
Loading historical data...

Documentation

Showing up to 5 results
|